Probability
0 0 0 0 0 0 0 0 0 0 0 0 0 0 0 0 0 0 0 0 0 0 0 0 0 0 0 0 0 0 0 0 0 0 0 0 0 0 0 0 0 0 0 0
0 0 0 0 0 0 0 0 0 0 0 0 0 0 0 0 0 0 0 0 0 0 0 0 0 0 0 0 0 0 0 0 0 0 0 0 0 0 0 0 0 0 0 0
0 0 0 0 0 0 0 0 0 0 0 0 0 0 0 0 0 0 0 0 0 0 0 0 0 0 0 0 0 0 0 0 0 0 0 0 0 0 0 0 0 0 0 0
0 0 0 0 0 0 0 0 0 0 0 0 0 0 0 0 0 0 0 0 0 0 0 0 0 0 0 0 0 0 0 0 0 0 0 0 0 0 0 0 0 0 0 0
0 0 0 0 0 0 0 0 0 0 0 0 0 0 0 0 0 0 0 0 0 0 0 0 0 0 0 0 0 0 0 0 0 0 0 0 0 0 0 0 0 0 0 0
0 0 0 0 0 0 0 0 0 0 0 0 0 0 0 0 0 0 0 0 0 0 0 0 0 0 0 0 0 0 0 0 0 0 0 0 0 0 0 0 0 0 0 0
0 0 0 0 0 0 0 0 0 0 0 0 0 0 0 0 0 0 0 0 0 0 0 0 0 0 0 0 0 0 0 0 0 0 0 0 0 0 0 0 0 0 0 0
0 0 0 0 0 0 0 0 0 0 0 0 0 0 0 0 0 0 0 0 0 0 0 0 0 0 0 0 0 0 0 0 0 0 0 0 0 0 0 0 0 0 0 0
0 0 0 0 0 0 0 0 0 0 0 0 0 0 0 0 0 0 0 0 0 0 0 0 0 0 0 0 0 0 0 0 0 0 0 0 0 0 0 0 0 0 0 0
0 0 0 0 0 0 0 0 0 0 0 0 0 0 0 0 0 0 0 0 0 0 0 0 0 0 0 0 0 0 0 0 0 0 0 0 0 0 0 0 0 0 0 0
0 0 0 0 0 0 0 0 0 0 0 0 0 0 0 0 0 0 0 0 0 0 0 0 0 0 0 0 0 0 0 0 0 0 0 0 0 0 0 0 0 0 0 0
0 0 0 0 0 0 0 0 0 0 0 0 0 0 0 0 0 0 0 0 0 0 0 0 0 0 0 0 0 0 0 0 0 0 0 0 0 0 0 0 0 0 0 0
0 0 0 0 0 0 0 0 0 0 0 0 0 0 0 0 0 0 0 0 0 0 0 0 0 0 0 0 0 0 0 0 0 0 0 0 0 0 0 0 0 0 0 0
0 0 0 0 0 0 0 0 0 0 0 0 0 0 0 0 0 0 0 0 0 0 0 0 0 0 0 0 0 0 0 0 0 0 0 0 0 0 0 0 0 0 0 0
0 0 0 0 0 0 0 0 0 0 0 0 0 0 0 0 0 0 0 0 0 0 0 0 0 0 0 0 0 0 0 0 0 0 0 0 0 0 0 0 0 0 0 0
0 0 0 0 0 0 0 0 0 0 0 0 0 0 0 0 0 0 0 0 0 0 0 0 0 0 0 0 0 0 0 0 0 0 0 0 0 0 0 0 0 0 0 0
0 0 0 0 0 0 0 0 0 0 0 0 0 0 0 0 0 0 0 0 0 0 0 0 0 0 0 0 0 0 0 0 0 0 0 0 0 0 0 0 0 0 0 0
0 0 0 0 0 0 0 0 0 0 0 0 0 0 0 0 0 0 0 0 0 0 0 0 0 0 0 0 0 0 0 0 0 0 0 0 0 0 0 0 0 0 0 0
0 0 0 0 0 0 0 0 0 0 0 0 0 0 0 0 0 0 0 0 0 0 0 0 0 0 0 0 0 0 0 0 0 0 0 0 0 0 0 0 0 0 0 0
0 0 0 0 0 0 0 0 0 0 0 0 0 0 0 0 0 0 0 0 0 0 0 0 0 0 0 0 0 0 0 0 0 0 0 0 0 0 0 0 0 0 0 0
0 0 0 0 0 0 0 0 0 0 0 0 0 0 0 0 0 0 0 0 0 0 0 0 0 0 0 0 0 0 0 0 0 0 0 0 0 0 0 0 0 0 0 0
0 0 0 0 0 0 0 0 0 0 0 0 0 0 0 0 0 0 0 0 0 0 0 0 0 0 0 0 0 0 0 0 0 0 0 0 0 0 0 0 0 0 0 0
0 0 0 0 0 0 0 0 0 0 0 0 0 0 0 0 0 0 0 0 0 0 0 0 0 0 0 0 0 0 0 0 0 0 0 0 0 0 0 0 0 0 0 0
0 0 0 0 0 0 0 0 0 0 0 0 0 0 0 0 0 0 0 0 0 0 0 0 0 0 0 0 0 0 0 0 0 0 0 0 0 0 0 0 0 0 0 0
0 0 0 0 0 0 0 0 0 0 0 0 0 0 0 0 0 0 0 0 0 0 0 0 0 0 0 0 0 0 0 0 0 0 0 0 0 0 0 0 0 0 0 0
0 0 0 0 0 0 0 0 0 0 0 0 0 0 0 0 0 0 0 0 0 0 0 0 0 0 0 0 0 0 0 0 0 0 0 0 0 0 0 0 0 0 0 0
Height
5823 5825 5824 5824 5825 5825 5824 5824 5824 5823 5823 5823 5822 5822 5821 5819 5819 5818 5817 5815 5814 5813 5812 5810 5809 5807 5806 5804 5802 5801 5799 5798 5796 5794 5793 5791 5789 5787 5785 5783 5781 5779 5777 5775
5819 5819 5819 5820 5820 5820 5820 5820 5819 5819 5819 5819 5819 5818 5817 5816 5815 5814 5812 5811 5810 5809 5807 5806 5804 5802 5801 5799 5797 5795 5793 5791 5790 5788 5786 5784 5782 5780 5777 5775 5773 5771 5769 5766
5813 5815 5815 5815 5815 5815 5815 5815 5815 5815 5814 5815 5815 5815 5814 5812 5811 5810 5808 5807 5806 5804 5803 5801 5799 5797 5795 5793 5791 5789 5786 5784 5782 5780 5778 5776 5774 5772 5769 5767 5765 5762 5759 5757
5808 5809 5810 5810 5811 5811 5811 5811 5811 5811 5810 5811 5811 5811 5810 5808 5807 5805 5804 5802 5801 5799 5798 5796 5794 5791 5789 5787 5784 5782 5780 5777 5775 5773 5771 5768 5766 5764 5761 5758 5756 5753 5750 5747
5804 5804 5805 5806 5806 5806 5806 5806 5807 5806 5806 5807 5806 5806 5806 5804 5802 5801 5799 5797 5795 5794 5792 5790 5787 5785 5783 5780 5778 5775 5773 5770 5768 5765 5763 5760 5758 5755 5752 5750 5747 5744 5740 5737
5798 5799 5800 5801 5801 5801 5801 5802 5802 5802 5802 5803 5802 5801 5800 5799 5797 5795 5794 5792 5789 5787 5785 5783 5781 5778 5775 5773 5771 5768 5766 5764 5761 5758 5756 5753 5750 5747 5744 5741 5738 5734 5731 5727
5793 5794 5795 5795 5796 5797 5797 5798 5798 5797 5798 5798 5797 5795 5795 5793 5791 5789 5787 5785 5783 5781 5778 5776 5773 5771 5768 5766 5764 5761 5759 5757 5754 5751 5748 5745 5742 5739 5735 5732 5728 5725 5721 5716
5788 5790 5790 5791 5791 5791 5792 5792 5793 5792 5792 5792 5791 5790 5790 5787 5785 5783 5781 5778 5776 5774 5771 5769 5766 5764 5761 5759 5757 5754 5752 5749 5746 5743 5740 5736 5733 5730 5726 5722 5718 5714 5710 5705
5782 5784 5785 5785 5786 5787 5786 5786 5786 5786 5785 5786 5786 5785 5784 5781 5778 5776 5774 5771 5769 5767 5764 5762 5759 5756 5754 5752 5749 5747 5744 5741 5738 5735 5731 5728 5724 5720 5716 5711 5707 5702 5697 5692
5777 5779 5779 5780 5781 5781 5781 5781 5781 5780 5778 5778 5779 5779 5777 5774 5771 5769 5767 5764 5762 5760 5757 5754 5752 5749 5747 5744 5741 5739 5736 5732 5729 5726 5722 5718 5713 5708 5704 5699 5693 5688 5682 5676
5771 5773 5774 5774 5775 5775 5775 5776 5774 5773 5772 5771 5771 5775 5771 5767 5764 5762 5759 5757 5755 5753 5750 5747 5744 5742 5739 5736 5733 5730 5727 5723 5719 5715 5711 5706 5701 5696 5690 5684 5678 5672 5666 5659
5764 5766 5767 5768 5769 5768 5768 5768 5768 5767 5766 5764 5763 5768 5763 5759 5756 5754 5752 5750 5747 5745 5742 5739 5736 5733 5730 5727 5724 5720 5717 5712 5708 5703 5698 5693 5687 5682 5675 5669 5662 5655 5648 5640
5758 5759 5761 5762 5764 5763 5762 5761 5761 5759 5758 5757 5756 5760 5754 5751 5748 5746 5744 5742 5739 5736 5733 5730 5727 5724 5721 5718 5714 5710 5706 5701 5696 5691 5685 5679 5673 5666 5659 5652 5644 5636 5628 5620
5751 5752 5755 5756 5755 5754 5754 5755 5753 5752 5750 5749 5750 5750 5747 5742 5739 5737 5736 5733 5730 5727 5724 5721 5718 5715 5711 5708 5703 5699 5694 5689 5683 5677 5671 5664 5657 5650 5642 5634 5625 5616 5607 5598
5743 5745 5746 5747 5747 5746 5746 5747 5746 5744 5742 5741 5742 5740 5739 5734 5732 5729 5726 5723 5721 5718 5715 5712 5709 5705 5701 5697 5692 5687 5681 5675 5669 5662 5655 5648 5640 5631 5623 5614 5604 5595 5585 5575
5735 5737 5738 5739 5738 5737 5737 5739 5737 5735 5734 5732 5731 5731 5729 5726 5723 5720 5717 5714 5711 5708 5705 5702 5698 5694 5690 5685 5680 5674 5668 5661 5654 5646 5638 5630 5622 5612 5603 5593 5583 5573 5562 5552
5728 5729 5729 5730 5730 5727 5729 5732 5729 5727 5725 5724 5722 5722 5719 5717 5714 5711 5708 5705 5702 5699 5695 5692 5688 5683 5678 5672 5667 5660 5653 5646 5638 5629 5621 5611 5602 5592 5582 5571 5560 5549 5539 5529
5720 5720 5719 5719 5720 5719 5723 5721 5720 5717 5716 5715 5713 5711 5709 5707 5704 5701 5699 5696 5692 5688 5685 5681 5676 5671 5665 5659 5653 5645 5637 5629 5621 5611 5602 5591 5581 5571 5560 5549 5538 5526 5515 5505
5711 5711 5710 5709 5708 5708 5713 5711 5709 5707 5706 5706 5703 5701 5699 5697 5694 5691 5688 5685 5681 5677 5673 5669 5664 5658 5651 5645 5638 5630 5621 5612 5603 5593 5582 5571 5559 5549 5538 5527 5515 5503 5492 5482
5702 5702 5701 5699 5697 5697 5702 5701 5698 5698 5696 5696 5693 5691 5689 5687 5685 5682 5678 5674 5670 5665 5661 5656 5650 5644 5637 5629 5621 5613 5604 5594 5584 5574 5563 5551 5538 5527 5516 5505 5493 5481 5470 5460
5693 5691 5691 5689 5687 5688 5691 5689 5688 5688 5688 5685 5683 5681 5679 5676 5674 5671 5666 5662 5658 5653 5648 5642 5636 5629 5621 5612 5604 5595 5586 5575 5565 5554 5543 5531 5518 5506 5494 5483 5472 5461 5451 5442
5682 5681 5681 5680 5678 5681 5679 5678 5678 5677 5675 5674 5672 5670 5668 5665 5662 5659 5655 5650 5645 5640 5634 5628 5621 5613 5604 5595 5586 5578 5568 5558 5547 5536 5524 5512 5499 5486 5474 5463 5454 5443 5433 5426
5671 5672 5670 5671 5672 5670 5668 5667 5666 5666 5665 5663 5661 5659 5657 5654 5650 5646 5642 5637 5632 5626 5620 5613 5605 5597 5588 5577 5567 5558 5549 5538 5527 5516 5504 5493 5481 5469 5457 5446 5437 5429 5420 5411
5660 5660 5660 5660 5659 5658 5657 5656 5656 5655 5654 5652 5650 5647 5645 5641 5638 5633 5629 5623 5617 5611 5604 5596 5589 5580 5571 5561 5550 5539 5529 5519 5508 5497 5486 5475 5464 5454 5444 5433 5423 5415 5407 5399
5649 5649 5648 5648 5648 5647 5647 5646 5645 5644 5642 5640 5638 5635 5632 5628 5624 5619 5614 5608 5602 5595 5587 5580 5571 5563 5554 5543 5532 5521 5510 5499 5489 5479 5469 5458 5448 5438 5430 5422 5412 5403 5396 5387
5639 5638 5638 5638 5638 5638 5637 5636 5634 5633 5631 5628 5625 5622 5618 5614 5610 5604 5599 5592 5586 5579 5571 5563 5554 5545 5536 5526 5515 5503 5492 5481 5471 5462 5452 5443 5433 5425 5416 5409 5403 5394 5386 5378
Wind_Speed
22 22 23 24 23 24 23 22 22 21 20 19 19 18 19 19 18 18 19 20 21 21 22 23 24 25 26 26 27 28 28 29 29 30 31 32 33 34 35 37 39 40 42 43
22 23 23 23 23 22 21 20 20 20 19 17 17 17 17 17 18 18 19 20 21 22 23 24 25 26 27 28 29 29 30 31 31 32 32 33 34 35 36 38 39 41 42 43
23 23 23 22 22 21 20 19 19 19 19 18 17 16 17 17 18 20 21 22 23 24 24 25 26 28 29 30 32 32 33 33 33 33 34 34 35 36 37 38 39 40 41 43
23 23 23 22 22 21 20 19 19 18 19 18 18 17 17 18 20 21 23 24 25 25 26 27 29 30 31 33 33 34 34 34 34 34 34 34 35 36 37 38 40 41 43 44
23 23 23 22 22 20 20 19 19 18 19 18 19 20 19 20 21 22 24 25 26 27 28 29 30 31 32 32 32 32 31 31 32 32 32 33 34 35 36 38 39 40 41 43
24 24 23 22 22 21 20 20 20 19 19 19 20 21 21 21 22 23 25 26 27 28 29 30 30 31 31 31 30 30 30 30 31 32 32 33 34 35 36 37 38 40 41 43
25 24 23 23 23 22 21 21 22 21 20 20 21 22 23 23 24 25 26 28 29 29 30 30 30 31 30 30 30 30 31 31 31 32 33 33 35 36 37 38 40 42 44 46
25 24 24 23 23 23 22 23 23 24 22 21 22 23 24 25 26 27 28 29 29 29 29 30 30 30 30 30 30 30 31 31 32 32 33 35 36 38 40 42 44 45 47 49
25 25 24 24 24 24 24 24 25 26 25 24 24 24 25 26 28 28 29 29 29 29 29 29 30 30 31 31 31 32 32 33 33 35 36 38 40 42 44 46 48 50 52 54
26 25 25 25 25 25 26 26 26 27 29 28 26 25 27 27 28 29 29 30 30 30 30 30 31 32 32 32 33 34 35 36 38 39 41 43 45 47 49 52 54 56 58 60
27 27 25 26 26 26 27 27 28 30 30 31 30 27 27 29 30 30 31 31 31 32 32 32 33 34 34 35 36 37 39 40 42 44 46 48 51 53 55 58 60 62 64 66
28 28 27 27 28 28 29 30 30 31 32 33 33 30 29 30 31 32 33 33 33 33 34 35 35 36 37 38 39 41 42 44 47 49 51 53 56 58 61 63 65 68 70 72
30 30 29 29 30 30 31 31 32 33 34 34 33 31 31 32 34 35 35 35 35 35 36 37 38 39 40 41 43 45 47 49 51 54 56 59 61 64 66 68 71 73 75 77
32 32 32 31 32 33 33 33 33 35 36 36 33 31 31 34 36 37 36 36 36 37 38 40 40 42 43 45 47 49 51 54 56 59 61 64 67 69 71 74 76 78 80 81
35 35 34 34 34 35 35 34 34 36 37 38 35 33 32 35 37 37 37 38 38 39 41 42 43 45 47 49 51 53 56 58 61 64 66 69 71 73 76 78 80 81 82 84
36 36 35 35 36 37 37 34 35 37 38 38 37 35 35 36 36 37 38 39 40 42 43 45 46 48 50 53 55 57 60 63 65 68 70 73 75 78 79 81 82 83 85 85
37 37 38 38 37 39 38 35 36 38 38 38 38 37 36 36 36 37 39 40 42 44 45 47 49 51 54 56 59 61 64 67 70 72 75 77 79 81 82 84 85 85 86 86
38 38 40 41 40 41 39 38 38 39 38 38 38 37 36 36 37 39 41 42 44 46 48 50 52 54 57 60 62 65 68 71 74 76 78 80 82 83 85 85 86 86 86 85
39 39 41 43 43 43 39 39 39 40 39 38 37 37 37 38 40 41 43 44 46 49 51 53 55 58 60 63 66 69 72 75 77 79 81 82 84 85 86 86 86 85 84 81
39 40 43 44 45 45 42 40 40 41 40 37 37 38 39 40 41 43 45 46 49 51 54 56 58 61 64 67 70 73 75 78 80 81 82 84 85 86 86 85 84 82 79 75
40 41 42 43 45 45 42 41 39 39 39 38 38 39 40 41 43 45 47 49 52 54 57 59 62 65 68 71 74 76 78 80 81 83 84 85 85 85 84 82 79 76 72 67
41 43 43 44 45 44 42 41 40 40 40 39 40 40 42 43 45 47 50 52 55 57 60 63 65 68 71 74 76 78 80 81 83 84 84 84 83 81 79 76 72 68 65 60
43 43 43 43 43 44 43 43 41 41 40 40 41 43 44 46 48 50 53 55 58 60 63 66 68 71 73 76 78 80 81 83 83 83 82 81 79 75 72 69 65 61 58 55
43 42 42 42 42 42 42 42 41 41 41 42 44 45 47 49 51 53 56 58 60 63 66 69 71 73 74 76 78 81 82 83 83 82 79 77 73 69 65 62 59 56 54 51
41 40 40 41 41 41 41 41 41 41 42 44 45 47 49 51 54 56 58 61 64 66 69 71 73 74 76 78 79 81 82 82 81 78 75 71 67 64 60 56 54 52 50 49
40 40 41 41 41 41 41 41 42 43 44 46 48 50 52 54 57 59 61 64 66 69 71 72 74 76 77 79 80 80 81 79 77 73 69 65 62 58 55 52 49 47 47 45
Wind_Direction
258 261 263 266 268 269 270 271 271 274 276 277 278 280 284 286 287 286 285 286 286 286 286 286 287 287 287 287 286 286 285 285 284 285 285 284 283 283 282 281 281 281 281 281
256 260 263 265 266 267 267 268 270 273 275 275 276 278 279 281 283 283 284 284 284 284 285 286 287 288 288 288 287 287 287 287 287 287 287 286 285 284 283 283 284 284 284 284
258 260 262 264 264 264 266 267 269 272 275 276 275 275 277 278 280 281 282 283 284 285 286 287 287 288 288 288 288 289 289 290 290 289 289 288 288 287 286 286 286 285 285 285
256 259 260 262 262 263 265 266 268 270 272 275 277 276 277 279 280 280 282 283 285 286 287 288 287 287 288 289 289 290 291 291 291 291 291 291 290 289 288 288 287 287 287 287
254 256 258 260 261 262 263 266 267 267 270 273 277 279 279 280 281 282 283 284 285 286 287 287 288 288 289 289 290 291 291 292 293 293 293 292 292 291 291 290 289 289 289 288
253 254 256 258 260 262 263 266 267 268 270 274 277 281 282 283 284 284 284 284 285 286 286 287 288 289 289 290 290 291 292 294 294 295 295 294 294 294 293 293 292 292 291 291
250 252 254 256 259 261 263 266 269 269 270 275 279 282 285 287 286 286 286 285 286 286 287 288 289 290 290 290 291 292 294 295 296 296 297 296 296 296 295 295 294 294 294 293
249 251 253 256 258 261 263 266 270 273 274 277 280 284 288 289 289 288 287 287 287 287 288 288 289 290 290 291 292 294 295 297 298 298 298 298 298 297 297 296 296 295 295 294
249 251 253 255 258 261 264 267 271 276 277 279 282 286 288 288 288 288 287 287 287 288 288 288 289 289 290 293 294 295 296 297 298 298 298 298 298 298 297 297 297 296 295 295
250 251 252 256 259 261 265 269 273 276 281 283 284 287 289 289 288 287 287 287 288 288 288 288 288 289 292 294 295 296 297 298 298 299 299 299 299 299 298 298 298 297 296 296
250 252 254 257 260 263 267 271 274 277 280 284 287 289 291 289 288 287 287 288 289 289 289 288 289 291 293 295 297 298 298 299 299 300 300 300 300 300 299 299 299 298 297 296
251 254 256 258 261 265 268 272 275 278 281 284 288 291 290 289 287 287 287 288 290 289 288 288 290 292 294 296 298 298 299 299 300 300 300 300 300 300 300 300 299 299 298 297
253 257 259 260 263 265 269 272 275 278 281 285 288 292 290 287 285 285 287 289 289 288 287 289 291 293 296 297 298 299 299 300 300 300 300 301 301 301 301 300 300 299 298 298
255 258 260 263 264 266 268 272 275 279 282 284 286 286 284 283 283 286 288 288 287 287 288 291 293 295 296 298 299 300 300 300 301 301 301 302 302 302 301 301 301 300 299 298
257 259 261 263 265 268 270 273 276 279 281 283 285 283 281 281 283 285 286 286 287 288 290 292 294 295 297 298 299 300 301 301 302 302 303 303 303 302 302 302 302 301 300 300
257 261 262 263 266 269 271 275 278 280 282 284 284 284 282 282 282 283 284 285 287 289 291 293 295 296 298 299 300 301 302 302 303 303 304 304 304 304 303 303 303 302 302 302
259 262 264 265 268 270 273 275 277 279 281 282 284 285 283 281 281 282 284 286 288 290 292 293 295 297 298 300 301 302 303 303 304 304 305 305 305 305 304 304 304 304 304 304
262 264 267 269 269 271 275 276 278 278 279 280 282 283 282 281 282 283 285 287 288 290 292 294 296 298 300 301 302 303 304 305 305 306 306 306 306 306 306 306 306 306 305 305
262 265 268 271 272 272 275 278 278 278 278 280 281 280 280 281 283 285 286 288 289 292 294 296 298 299 301 302 303 304 305 306 307 307 308 308 308 308 308 308 307 307 306 306
262 265 268 271 273 275 277 277 277 278 279 279 278 278 280 282 284 286 288 290 292 294 296 298 300 301 302 303 304 306 307 307 308 309 309 309 309 309 309 309 308 308 308 307
262 265 267 271 274 276 279 280 279 278 279 278 277 279 281 283 285 287 289 291 294 296 298 299 301 303 304 305 306 307 308 309 310 310 310 310 311 311 310 310 309 309 308 308
264 266 268 270 273 276 277 279 279 279 279 279 281 282 283 285 287 289 291 293 295 297 299 301 303 304 306 306 307 309 309 310 310 311 311 311 311 311 311 311 310 310 309 309
266 268 269 270 272 274 276 276 277 278 279 281 282 283 285 287 289 291 293 295 297 299 301 303 304 306 307 308 309 310 310 311 311 312 312 312 312 311 311 311 311 311 311 310
267 267 269 270 271 272 273 275 277 278 280 282 283 285 287 289 291 293 295 297 300 301 303 304 306 307 309 309 310 311 311 312 312 312 312 312 312 312 311 311 311 312 311 311
267 268 269 269 270 271 273 276 278 279 281 282 284 286 289 291 293 296 298 300 302 303 305 306 307 308 309 310 311 312 312 312 312 313 312 312 312 312 312 311 312 312 312 312
267 267 267 267 270 272 275 277 279 281 283 285 287 289 291 294 296 298 300 302 303 304 306 307 308 309 310 311 311 312 312 312 312 313 313 313 313 313 312 312 312 312 312 313